QPF
0.03 0.03 0.05 0.05 0.07 0.06 0.06 0.07 0.05 0.04 0.04 0.05 0.05 0.06 0.06 0.08 0.07 0.06 0.05 0.04 0.04 0.04 0.03 0.03 0.02 0.03 0.04 0.04 0.04 0.03 0.02 0.02 0.03 0.05 0.05 0.04 0.03 0.02 0.01 0.01 0.02 0.02 0.02
0.04 0.04 0.06 0.07 0.09 0.08 0.08 0.09 0.07 0.05 0.05 0.05 0.05 0.05 0.04 0.06 0.06 0.06 0.05 0.03 0.03 0.03 0.04 0.03 0.03 0.04 0.03 0.03 0.02 0.02 0.01 0.01 0.01 0.02 0.03 0.04 0.04 0.03 0.02 0.01 0.02 0.02 0.02
0.04 0.03 0.07 0.09 0.11 0.10 0.10 0.11 0.11 0.07 0.05 0.05 0.05 0.03 0.02 0.02 0.02 0.03 0.03 0.03 0.02 0.04 0.04 0.04 0.03 0.05 0.05 0.03 0.03 0.02 0.02 0.02 0.02 0.01 0.01 0.02 0.02 0.02 0.02 0.01 0.02 0.02 0.02
0.04 0.05 0.06 0.09 0.09 0.09 0.09 0.09 0.10 0.08 0.07 0.06 0.04 0.03 0.02 0.01 0.01 0.01 0.01 0.01 0.01 0.02 0.06 0.07 0.05 0.05 0.05 0.04 0.04 0.05 0.04 0.03 0.03 0.02 0.01 0.01 0.01 0.01 0.02 0.02 0.02 0.02 0.01
0.03 0.05 0.05 0.09 0.11 0.10 0.08 0.07 0.08 0.08 0.07 0.07 0.05 0.05 0.03 0.03 0.02 0.02 0.01 0.01 0.01 0.01 0.03 0.05 0.06 0.05 0.05 0.06 0.06 0.05 0.04 0.03 0.02 0.02 0.02 0.01 0.01 0.01 0.01 0.01 0.01 0.01 0.01
0.03 0.04 0.04 0.07 0.13 0.14 0.12 0.10 0.09 0.08 0.07 0.07 0.06 0.06 0.05 0.04 0.04 0.03 0.02 0.01 0.01 0.02 0.03 0.04 0.04 0.04 0.04 0.05 0.05 0.03 0.03 0.03 0.03 0.02 0.02 0.01 0.01 0.01 0.01 0.01 0.00 0.01 0.01
0.03 0.03 0.04 0.05 0.10 0.14 0.13 0.13 0.12 0.10 0.09 0.07 0.06 0.07 0.07 0.06 0.05 0.04 0.02 0.01 0.01 0.01 0.02 0.04 0.04 0.04 0.03 0.03 0.03 0.02 0.02 0.02 0.03 0.03 0.03 0.02 0.02 0.01 0.01 0.01 0.01 0.01 0.01
0.02 0.02 0.02 0.03 0.06 0.08 0.11 0.11 0.11 0.10 0.08 0.07 0.08 0.08 0.07 0.07 0.06 0.04 0.02 0.02 0.01 0.01 0.02 0.04 0.04 0.04 0.03 0.02 0.03 0.03 0.02 0.02 0.03 0.03 0.03 0.03 0.02 0.02 0.02 0.01 0.01 0.01 0.01
0.02 0.02 0.02 0.02 0.03 0.03 0.05 0.07 0.08 0.08 0.08 0.07 0.09 0.09 0.07 0.06 0.06 0.04 0.02 0.02 0.02 0.02 0.02 0.03 0.03 0.03 0.04 0.03 0.03 0.04 0.03 0.04 0.04 0.04 0.05 0.04 0.03 0.03 0.02 0.02 0.02 0.03 0.03
0.01 0.01 0.01 0.01 0.02 0.02 0.03 0.04 0.05 0.06 0.06 0.05 0.05 0.05 0.05 0.04 0.04 0.03 0.01 0.02 0.02 0.02 0.03 0.03 0.03 0.02 0.03 0.03 0.04 0.03 0.04 0.06 0.05 0.05 0.05 0.05 0.04 0.04 0.04 0.04 0.03 0.03 0.04
0.01 0.01 0.00 0.01 0.02 0.02 0.02 0.03 0.03 0.03 0.03 0.03 0.03 0.03 0.03 0.02 0.02 0.02 0.01 0.01 0.01 0.01 0.02 0.03 0.03 0.03 0.03 0.03 0.04 0.05 0.06 0.06 0.07 0.07 0.07 0.07 0.06 0.05 0.04 0.03 0.03 0.03 0.03
0.01 0.01 0.00 0.01 0.01 0.01 0.01 0.01 0.02 0.02 0.01 0.02 0.02 0.04 0.02 0.01 0.01 0.02 0.02 0.01 0.01 0.01 0.01 0.02 0.03 0.03 0.03 0.03 0.03 0.03 0.04 0.06 0.07 0.07 0.08 0.08 0.06 0.05 0.04 0.03 0.02 0.03 0.03
0.01 0.01 0.01 0.01 0.01 0.01 0.01 0.01 0.02 0.01 0.01 0.02 0.01 0.02 0.01 0.01 0.01 0.01 0.01 0.01 0.01 0.01 0.01 0.01 0.02 0.02 0.02 0.04 0.04 0.04 0.04 0.05 0.06 0.06 0.06 0.05 0.05 0.04 0.03 0.02 0.02 0.02 0.03
0.01 0.01 0.01 0.01 0.01 0.01 0.01 0.02 0.01 0.01 0.01 0.01 0.01 0.01 0.01 0.03 0.03 0.02 0.01 0.01 0.01 0.01 0.01 0.01 0.01 0.01 0.01 0.01 0.03 0.03 0.03 0.03 0.03 0.03 0.04 0.05 0.04 0.04 0.04 0.03 0.02 0.03 0.04
0.02 0.01 0.01 0.01 0.00 0.01 0.02 0.03 0.01 0.01 0.01 0.01 0.01 0.01 0.01 0.02 0.04 0.03 0.02 0.02 0.02 0.01 0.01 0.01 0.01 0.01 0.01 0.01 0.01 0.01 0.01 0.01 0.01 0.01 0.01 0.02 0.04 0.04 0.05 0.05 0.04 0.04 0.05
0.01 0.01 0.02 0.01 0.01 0.01 0.01 0.02 0.03 0.01 0.01 0.01 0.00 0.00 0.00 0.01 0.02 0.02 0.02 0.02 0.02 0.01 0.01 0.01 0.01 0.01 0.01 0.01 0.01 0.01 0.01 0.01 0.00 0.01 0.01 0.01 0.02 0.04 0.05 0.05 0.05 0.04 0.04
0.01 0.01 0.01 0.01 0.01 0.01 0.00 0.00 0.02 0.01 0.01 0.00 0.00 0.00 0.00 0.00 0.01 0.01 0.01 0.01 0.02 0.01 0.00 0.01 0.01 0.01 0.01 0.01 0.01 0.01 0.01 0.01 0.01 0.01 0.01 0.01 0.01 0.02 0.03 0.03 0.03 0.02 0.02
0.01 0.01 0.01 0.01 0.01 0.01 0.01 0.00 0.01 0.01 0.01 0.01 0.00 0.00 0.00 0.00 0.01 0.01 0.01 0.01 0.01 0.01 0.01 0.01 0.01 0.01 0.01 0.01 0.01 0.01 0.01 0.01 0.01 0.01 0.01 0.02 0.02 0.02 0.02 0.02 0.01 0.01 0.01
0.01 0.02 0.02 0.01 0.01 0.01 0.01 0.01 0.01 0.00 0.00 0.01 0.01 0.01 0.00 0.00 0.00 0.01 0.01 0.01 0.01 0.01 0.01 0.01 0.01 0.01 0.01 0.01 0.01 0.01 0.01 0.01 0.01 0.01 0.02 0.02 0.02 0.01 0.01 0.01 0.01 0.01 0.01
0.01 0.01 0.02 0.02 0.02 0.02 0.02 0.01 0.01 0.01 0.01 0.01 0.01 0.01 0.00 0.00 0.00 0.01 0.01 0.01 0.01 0.01 0.01 0.01 0.01 0.01 0.01 0.01 0.01 0.01 0.01 0.00 0.00 0.01 0.01 0.01 0.01 0.01 0.01 0.01 0.02 0.01 0.01
0.00 0.01 0.01 0.02 0.02 0.04 0.02 0.01 0.01 0.01 0.01 0.02 0.02 0.02 0.01 0.00 0.00 0.01 0.01 0.01 0.02 0.02 0.03 0.02 0.02 0.02 0.02 0.01 0.01 0.01 0.01 0.00 0.00 0.00 0.01 0.01 0.02 0.02 0.02 0.01 0.01 0.02 0.02
0.01 0.01 0.01 0.01 0.02 0.02 0.01 0.01 0.01 0.01 0.02 0.03 0.03 0.03 0.02 0.02 0.01 0.01 0.01 0.02 0.02 0.02 0.02 0.02 0.02 0.02 0.03 0.02 0.02 0.02 0.02 0.02 0.01 0.01 0.01 0.02 0.01 0.01 0.02 0.02 0.02 0.02 0.02
0.01 0.01 0.01 0.02 0.02 0.02 0.02 0.02 0.01 0.01 0.02 0.03 0.03 0.03 0.03 0.02 0.02 0.02 0.02 0.02 0.03 0.03 0.03 0.03 0.03 0.03 0.02 0.02 0.02 0.02 0.03 0.03 0.02 0.02 0.02 0.02 0.02 0.01 0.01 0.01 0.02 0.02 0.02
0.03 0.03 0.03 0.03 0.03 0.02 0.02 0.02 0.02 0.02 0.03 0.03 0.03 0.03 0.03 0.04 0.05 0.04 0.03 0.03 0.03 0.03 0.03 0.03 0.04 0.03 0.02 0.02 0.02 0.02 0.02 0.02 0.02 0.02 0.01 0.01 0.02 0.02 0.01 0.02 0.02 0.02 0.03
0.06 0.06 0.04 0.04 0.04 0.03 0.02 0.02 0.02 0.03 0.03 0.03 0.03 0.03 0.03 0.03 0.05 0.07 0.07 0.06 0.06 0.04 0.03 0.02 0.02 0.02 0.02 0.02 0.02 0.02 0.02 0.02 0.02 0.01 0.01 0.01 0.01 0.02 0.02 0.02 0.02 0.02 0.02
0.05 0.08 0.06 0.03 0.02 0.02 0.02 0.02 0.02 0.02 0.03 0.03 0.03 0.02 0.02 0.02 0.02 0.03 0.03 0.04 0.04 0.03 0.02 0.01 0.01 0.01 0.01 0.00 0.01 0.01 0.01 0.01 0.01 0.00 0.00 0.01 0.01 0.02 0.02 0.02 0.02 0.01 0.01
MSLP
1015.35 1015.45 1015.55 1015.63 1015.70 1015.77 1015.85 1015.97 1016.15 1016.38 1016.65 1016.94 1017.21 1017.44 1017.59 1017.66 1017.66 1017.62 1017.55 1017.51 1017.50 1017.55 1017.66 1017.81 1017.98 1018.15 1018.30 1018.41 1018.50 1018.57 1018.64 1018.72 1018.83 1018.97 1019.13 1019.28 1019.40 1019.48 1019.48 1019.41 1019.27 1019.08 1018.87
1014.98 1015.12 1015.26 1015.38 1015.47 1015.56 1015.67 1015.82 1016.03 1016.32 1016.66 1017.01 1017.34 1017.61 1017.78 1017.84 1017.80 1017.70 1017.58 1017.48 1017.44 1017.48 1017.60 1017.78 1018.00 1018.22 1018.41 1018.55 1018.66 1018.73 1018.79 1018.87 1018.98 1019.13 1019.30 1019.48 1019.64 1019.74 1019.78 1019.73 1019.61 1019.42 1019.20
1014.41 1014.60 1014.80 1014.98 1015.12 1015.25 1015.39 1015.58 1015.85 1016.19 1016.60 1017.02 1017.41 1017.72 1017.91 1017.97 1017.92 1017.78 1017.61 1017.47 1017.40 1017.43 1017.55 1017.75 1017.99 1018.25 1018.47 1018.64 1018.76 1018.84 1018.91 1018.98 1019.09 1019.24 1019.43 1019.64 1019.83 1019.98 1020.05 1020.04 1019.94 1019.77 1019.55
1013.68 1013.95 1014.22 1014.46 1014.67 1014.85 1015.04 1015.28 1015.59 1015.98 1016.43 1016.91 1017.35 1017.71 1017.94 1018.02 1017.97 1017.82 1017.64 1017.48 1017.38 1017.39 1017.51 1017.72 1017.98 1018.25 1018.50 1018.69 1018.82 1018.91 1018.98 1019.06 1019.18 1019.34 1019.55 1019.78 1020.01 1020.19 1020.30 1020.31 1020.24 1020.08 1019.88
1012.88 1013.22 1013.58 1013.90 1014.18 1014.42 1014.65 1014.92 1015.26 1015.68 1016.17 1016.68 1017.17 1017.57 1017.84 1017.96 1017.94 1017.81 1017.63 1017.47 1017.37 1017.37 1017.49 1017.69 1017.96 1018.23 1018.49 1018.69 1018.84 1018.94 1019.02 1019.12 1019.25 1019.42 1019.65 1019.90 1020.14 1020.35 1020.48 1020.53 1020.47 1020.33 1020.13
1012.12 1012.54 1012.98 1013.39 1013.74 1014.02 1014.28 1014.56 1014.91 1015.33 1015.82 1016.34 1016.86 1017.29 1017.61 1017.78 1017.80 1017.72 1017.58 1017.43 1017.35 1017.35 1017.45 1017.65 1017.90 1018.17 1018.42 1018.63 1018.79 1018.91 1019.01 1019.12 1019.27 1019.46 1019.70 1019.96 1020.22 1020.43 1020.58 1020.64 1020.59 1020.46 1020.27
1011.52 1012.01 1012.53 1013.00 1013.40 1013.71 1013.98 1014.25 1014.56 1014.95 1015.42 1015.93 1016.44 1016.90 1017.25 1017.47 1017.56 1017.53 1017.44 1017.34 1017.28 1017.28 1017.38 1017.56 1017.79 1018.05 1018.29 1018.49 1018.66 1018.79 1018.92 1019.05 1019.22 1019.42 1019.67 1019.94 1020.20 1020.41 1020.56 1020.62 1020.58 1020.46 1020.28
1011.14 1011.69 1012.27 1012.79 1013.21 1013.53 1013.78 1014.01 1014.27 1014.60 1015.00 1015.47 1015.96 1016.42 1016.80 1017.06 1017.21 1017.25 1017.22 1017.17 1017.14 1017.16 1017.25 1017.41 1017.61 1017.84 1018.06 1018.26 1018.43 1018.58 1018.72 1018.88 1019.07 1019.29 1019.55 1019.81 1020.06 1020.27 1020.41 1020.47 1020.44 1020.34 1020.17
1011.00 1011.59 1012.20 1012.74 1013.16 1013.46 1013.67 1013.85 1014.03 1014.28 1014.61 1015.01 1015.46 1015.89 1016.28 1016.58 1016.78 1016.88 1016.91 1016.91 1016.91 1016.95 1017.03 1017.17 1017.35 1017.54 1017.74 1017.93 1018.11 1018.27 1018.44 1018.62 1018.83 1019.07 1019.33 1019.59 1019.83 1020.03 1020.16 1020.22 1020.21 1020.12 1019.99
1011.05 1011.65 1012.26 1012.79 1013.20 1013.47 1013.63 1013.73 1013.85 1014.01 1014.26 1014.59 1014.97 1015.37 1015.74 1016.06 1016.29 1016.44 1016.53 1016.57 1016.61 1016.66 1016.74 1016.86 1017.01 1017.18 1017.36 1017.54 1017.72 1017.89 1018.08 1018.29 1018.52 1018.77 1019.04 1019.30 1019.53 1019.72 1019.85 1019.92 1019.92 1019.87 1019.78
1011.18 1011.77 1012.36 1012.87 1013.23 1013.46 1013.58 1013.63 1013.68 1013.77 1013.94 1014.19 1014.51 1014.86 1015.21 1015.52 1015.76 1015.95 1016.07 1016.16 1016.22 1016.29 1016.38 1016.49 1016.62 1016.78 1016.94 1017.11 1017.29 1017.48 1017.69 1017.92 1018.18 1018.44 1018.72 1018.98 1019.21 1019.40 1019.53 1019.61 1019.65 1019.64 1019.60
1011.29 1011.85 1012.40 1012.85 1013.18 1013.37 1013.46 1013.47 1013.48 1013.53 1013.64 1013.83 1014.09 1014.39 1014.69 1014.98 1015.22 1015.42 1015.57 1015.69 1015.78 1015.88 1015.98 1016.09 1016.22 1016.37 1016.52 1016.69 1016.88 1017.08 1017.31 1017.56 1017.83 1018.12 1018.40 1018.66 1018.90 1019.09 1019.24 1019.34 1019.40 1019.44 1019.47
1011.29 1011.80 1012.29 1012.69 1012.98 1013.15 1013.22 1013.23 1013.23 1013.26 1013.35 1013.50 1013.70 1013.94 1014.20 1014.45 1014.68 1014.88 1015.04 1015.18 1015.31 1015.43 1015.55 1015.69 1015.82 1015.97 1016.13 1016.30 1016.49 1016.71 1016.95 1017.21 1017.50 1017.80 1018.09 1018.37 1018.61 1018.81 1018.97 1019.10 1019.20 1019.28 1019.35
1011.14 1011.58 1012.00 1012.35 1012.60 1012.76 1012.85 1012.88 1012.91 1012.95 1013.04 1013.16 1013.33 1013.53 1013.73 1013.94 1014.14 1014.33 1014.50 1014.66 1014.81 1014.97 1015.13 1015.28 1015.44 1015.60 1015.77 1015.94 1016.14 1016.35 1016.60 1016.87 1017.17 1017.48 1017.78 1018.07 1018.32 1018.54 1018.72 1018.86 1018.99 1019.11 1019.23
1010.84 1011.20 1011.55 1011.85 1012.08 1012.25 1012.36 1012.45 1012.52 1012.61 1012.71 1012.83 1012.97 1013.12 1013.28 1013.45 1013.61 1013.78 1013.95 1014.13 1014.31 1014.51 1014.70 1014.89 1015.07 1015.24 1015.41 1015.59 1015.77 1015.99 1016.23 1016.50 1016.80 1017.12 1017.43 1017.73 1018.00 1018.23 1018.43 1018.60 1018.75 1018.89 1019.04
1010.43 1010.70 1010.98 1011.23 1011.45 1011.64 1011.81 1011.95 1012.09 1012.23 1012.36 1012.49 1012.61 1012.73 1012.85 1012.97 1013.10 1013.24 1013.41 1013.60 1013.82 1014.04 1014.27 1014.49 1014.69 1014.87 1015.04 1015.20 1015.37 1015.56 1015.79 1016.05 1016.35 1016.67 1016.99 1017.31 1017.60 1017.85 1018.07 1018.25 1018.42 1018.58 1018.75
1009.94 1010.14 1010.35 1010.57 1010.78 1011.00 1011.22 1011.44 1011.64 1011.83 1012.00 1012.15 1012.26 1012.35 1012.43 1012.51 1012.61 1012.73 1012.89 1013.10 1013.33 1013.58 1013.84 1014.07 1014.28 1014.46 1014.61 1014.75 1014.89 1015.05 1015.25 1015.49 1015.78 1016.10 1016.43 1016.77 1017.08 1017.36 1017.61 1017.82 1018.00 1018.17 1018.35
1009.41 1009.54 1009.70 1009.89 1010.11 1010.36 1010.63 1010.92 1011.19 1011.44 1011.65 1011.81 1011.92 1011.99 1012.04 1012.09 1012.16 1012.26 1012.42 1012.62 1012.87 1013.13 1013.39 1013.63 1013.84 1014.00 1014.12 1014.22 1014.32 1014.44 1014.60 1014.82 1015.09 1015.41 1015.76 1016.12 1016.46 1016.78 1017.05 1017.29 1017.49 1017.68 1017.87
1008.87 1008.94 1009.06 1009.23 1009.46 1009.74 1010.07 1010.41 1010.75 1011.05 1011.30 1011.48 1011.60 1011.66 1011.69 1011.72 1011.77 1011.86 1012.00 1012.20 1012.44 1012.70 1012.96 1013.18 1013.36 1013.49 1013.58 1013.63 1013.68 1013.76 1013.88 1014.07 1014.33 1014.65 1015.01 1015.39 1015.77 1016.12 1016.44 1016.71 1016.94 1017.15 1017.35
1008.29 1008.32 1008.41 1008.57 1008.82 1009.14 1009.51 1009.91 1010.30 1010.66 1010.95 1011.16 1011.30 1011.37 1011.39 1011.41 1011.45 1011.52 1011.66 1011.84 1012.07 1012.31 1012.54 1012.74 1012.88 1012.97 1013.01 1013.02 1013.02 1013.06 1013.15 1013.31 1013.56 1013.88 1014.25 1014.66 1015.07 1015.46 1015.81 1016.12 1016.39 1016.63 1016.85
1007.68 1007.68 1007.75 1007.91 1008.17 1008.52 1008.94 1009.39 1009.85 1010.25 1010.59 1010.85 1011.01 1011.11 1011.15 1011.17 1011.21 1011.27 1011.39 1011.55 1011.75 1011.96 1012.16 1012.32 1012.42 1012.47 1012.47 1012.44 1012.41 1012.42 1012.48 1012.63 1012.87 1013.18 1013.57 1013.99 1014.42 1014.84 1015.23 1015.57 1015.87 1016.13 1016.38
1007.03 1007.00 1007.06 1007.23 1007.51 1007.89 1008.35 1008.86 1009.36 1009.83 1010.22 1010.53 1010.75 1010.88 1010.95 1010.99 1011.03 1011.10 1011.20 1011.33 1011.50 1011.67 1011.82 1011.94 1012.00 1012.02 1011.99 1011.94 1011.90 1011.89 1011.95 1012.09 1012.32 1012.63 1013.01 1013.43 1013.87 1014.30 1014.70 1015.06 1015.39 1015.68 1015.95
1006.38 1006.32 1006.37 1006.54 1006.83 1007.24 1007.74 1008.29 1008.85 1009.38 1009.83 1010.20 1010.48 1010.66 1010.78 1010.85 1010.91 1010.97 1011.05 1011.16 1011.28 1011.41 1011.52 1011.60 1011.63 1011.63 1011.59 1011.54 1011.51 1011.51 1011.57 1011.71 1011.94 1012.24 1012.60 1013.00 1013.42 1013.84 1014.23 1014.59 1014.92 1015.22 1015.50
1005.77 1005.68 1005.71 1005.87 1006.17 1006.60 1007.12 1007.71 1008.31 1008.90 1009.42 1009.85 1010.19 1010.44 1010.60 1010.71 1010.79 1010.86 1010.92 1011.00 1011.08 1011.17 1011.24 1011.29 1011.31 1011.30 1011.28 1011.25 1011.24 1011.27 1011.35 1011.50 1011.72 1012.00 1012.33 1012.69 1013.07 1013.44 1013.80 1014.13 1014.43 1014.73 1015.01
1005.28 1005.16 1005.16 1005.30 1005.59 1006.01 1006.54 1007.14 1007.78 1008.40 1008.97 1009.46 1009.86 1010.17 1010.39 1010.54 1010.64 1010.70 1010.76 1010.81 1010.86 1010.90 1010.94 1010.97 1010.99 1011.00 1011.01 1011.02 1011.05 1011.12 1011.23 1011.40 1011.61 1011.86 1012.14 1012.45 1012.76 1013.06 1013.35 1013.63 1013.90 1014.16 1014.43
1004.99 1004.82 1004.78 1004.88 1005.13 1005.52 1006.03 1006.62 1007.26 1007.89 1008.49 1009.03 1009.48 1009.83 1010.10 1010.28 1010.40 1010.47 1010.52 1010.54 1010.56 1010.58 1010.60 1010.63 1010.65 1010.69 1010.73 1010.80 1010.88 1011.00 1011.14 1011.32 1011.52 1011.74 1011.98 1012.21 1012.44 1012.66 1012.87 1013.08 1013.29 1013.51 1013.75
Thickness
5739 5738 5736 5733 5729 5726 5723 5720 5718 5715 5712 5708 5704 5701 5699 5698 5696 5695 5693 5691 5690 5688 5686 5684 5682 5680 5679 5677 5676 5675 5674 5673 5673 5672 5672 5674 5676 5676 5677 5678 5679 5679 5680
5733 5732 5730 5727 5724 5721 5719 5716 5714 5711 5708 5705 5702 5699 5696 5694 5692 5691 5689 5687 5686 5684 5683 5680 5678 5677 5675 5673 5672 5671 5669 5669 5668 5667 5665 5664 5666 5669 5673 5673 5674 5674 5675
5730 5728 5725 5722 5720 5718 5716 5713 5710 5707 5704 5702 5698 5695 5692 5690 5687 5685 5684 5683 5682 5680 5679 5677 5676 5674 5672 5670 5669 5668 5666 5664 5663 5663 5662 5658 5658 5661 5665 5667 5668 5669 5670
5728 5725 5722 5718 5717 5715 5713 5710 5707 5704 5701 5698 5694 5691 5687 5685 5683 5681 5680 5679 5678 5677 5676 5674 5673 5671 5669 5668 5666 5665 5663 5661 5659 5659 5658 5658 5658 5656 5656 5660 5662 5664 5665
5726 5723 5720 5718 5716 5713 5710 5707 5704 5700 5697 5694 5691 5688 5685 5683 5681 5678 5676 5674 5673 5673 5672 5671 5669 5668 5666 5665 5663 5662 5660 5659 5657 5656 5655 5654 5653 5652 5652 5653 5655 5658 5660
5724 5721 5719 5716 5712 5709 5706 5703 5699 5696 5694 5691 5688 5686 5683 5680 5677 5675 5672 5671 5670 5669 5668 5667 5666 5664 5663 5661 5660 5659 5657 5655 5654 5654 5653 5652 5651 5650 5649 5649 5649 5651 5654
5721 5717 5713 5710 5708 5705 5703 5699 5695 5692 5690 5688 5686 5683 5681 5679 5676 5673 5670 5668 5666 5665 5665 5664 5663 5661 5660 5659 5657 5656 5654 5652 5651 5651 5651 5650 5650 5649 5648 5646 5646 5646 5648
5717 5715 5712 5709 5706 5703 5699 5696 5692 5689 5686 5684 5682 5681 5679 5677 5674 5672 5668 5666 5665 5664 5663 5662 5660 5659 5657 5656 5654 5652 5651 5650 5649 5649 5648 5648 5648 5647 5646 5645 5643 5642 5643
5715 5713 5711 5707 5704 5700 5697 5693 5690 5687 5684 5682 5680 5678 5676 5674 5672 5669 5667 5666 5664 5663 5661 5660 5658 5656 5655 5653 5651 5649 5648 5647 5646 5646 5646 5646 5645 5644 5644 5643 5642 5640 5638
5713 5711 5708 5705 5701 5698 5694 5691 5688 5685 5682 5680 5678 5676 5675 5673 5671 5668 5666 5664 5663 5661 5659 5658 5656 5654 5652 5650 5648 5646 5645 5644 5643 5642 5642 5642 5641 5641 5640 5639 5638 5638 5637
5710 5707 5705 5702 5699 5695 5692 5688 5685 5682 5680 5678 5676 5674 5673 5671 5669 5666 5665 5663 5661 5659 5657 5656 5654 5652 5650 5648 5646 5644 5642 5641 5640 5639 5639 5638 5638 5637 5636 5635 5634 5634 5633
5708 5705 5702 5699 5695 5692 5689 5686 5683 5680 5678 5677 5675 5673 5670 5668 5666 5664 5663 5661 5659 5658 5656 5654 5652 5650 5649 5647 5644 5643 5641 5639 5638 5637 5635 5634 5634 5632 5632 5631 5630 5629 5629
5704 5701 5698 5695 5693 5690 5687 5684 5681 5679 5678 5675 5673 5670 5668 5666 5664 5662 5661 5659 5657 5656 5654 5651 5649 5648 5647 5645 5643 5641 5640 5638 5636 5634 5633 5631 5630 5628 5628 5627 5626 5626 5625
5700 5698 5694 5692 5690 5688 5685 5683 5680 5678 5676 5673 5670 5668 5666 5664 5662 5661 5659 5657 5655 5653 5651 5650 5648 5646 5645 5643 5641 5640 5637 5635 5634 5632 5630 5629 5627 5626 5625 5624 5622 5621 5620
5697 5695 5692 5689 5687 5684 5682 5680 5678 5676 5674 5670 5668 5666 5665 5663 5661 5658 5657 5655 5652 5651 5650 5647 5646 5644 5643 5641 5639 5637 5635 5633 5630 5629 5627 5626 5626 5624 5623 5621 5619 5617 5615
5695 5693 5690 5687 5684 5682 5680 5678 5675 5673 5671 5668 5666 5665 5662 5660 5658 5656 5654 5652 5650 5649 5647 5645 5644 5642 5642 5640 5638 5635 5632 5630 5628 5626 5625 5624 5623 5621 5620 5618 5617 5615 5612
5692 5690 5687 5685 5683 5681 5678 5675 5673 5670 5668 5665 5663 5661 5659 5657 5655 5653 5651 5649 5647 5646 5644 5643 5642 5640 5639 5638 5635 5633 5630 5627 5625 5622 5621 5621 5620 5617 5616 5614 5613 5611 5609
5689 5688 5686 5683 5681 5678 5675 5672 5670 5667 5665 5663 5661 5659 5656 5654 5652 5649 5648 5646 5644 5643 5642 5640 5639 5638 5637 5635 5632 5630 5627 5624 5621 5619 5618 5615 5614 5614 5612 5610 5608 5607 5605
5687 5685 5684 5681 5678 5675 5672 5669 5666 5664 5662 5660 5658 5656 5654 5651 5649 5647 5645 5644 5642 5640 5639 5638 5636 5635 5634 5632 5629 5626 5623 5620 5618 5616 5614 5612 5610 5609 5607 5605 5603 5601 5600
5684 5682 5680 5677 5674 5672 5669 5665 5663 5660 5658 5658 5656 5654 5652 5649 5647 5645 5643 5641 5639 5638 5637 5635 5634 5632 5630 5628 5626 5623 5620 5616 5614 5612 5610 5608 5607 5605 5603 5600 5598 5597 5595
5680 5678 5675 5671 5670 5667 5664 5661 5659 5657 5656 5654 5652 5650 5648 5646 5644 5642 5640 5638 5636 5634 5633 5631 5630 5628 5626 5624 5622 5619 5616 5613 5611 5608 5606 5604 5602 5600 5598 5596 5594 5592 5590
5674 5672 5668 5665 5664 5662 5659 5656 5654 5653 5652 5649 5647 5646 5644 5642 5641 5637 5636 5634 5632 5630 5628 5626 5625 5623 5622 5620 5618 5615 5612 5609 5606 5604 5602 5600 5597 5595 5593 5590 5588 5586 5584
5667 5665 5662 5660 5658 5656 5654 5652 5650 5649 5647 5644 5642 5640 5639 5638 5636 5634 5632 5630 5627 5625 5623 5621 5620 5619 5617 5615 5613 5611 5608 5604 5601 5600 5598 5595 5593 5591 5589 5586 5584 5581 5579
5660 5658 5656 5654 5653 5651 5650 5648 5646 5644 5642 5638 5636 5634 5633 5632 5631 5629 5627 5625 5623 5621 5619 5617 5615 5614 5612 5611 5609 5607 5604 5600 5597 5595 5593 5591 5588 5587 5584 5582 5579 5577 5574
5652 5651 5650 5648 5647 5645 5644 5643 5641 5638 5635 5633 5631 5629 5627 5626 5624 5623 5621 5620 5619 5617 5615 5613 5611 5609 5608 5607 5604 5602 5599 5597 5593 5590 5588 5586 5585 5583 5580 5577 5574 5572 5569
5645 5643 5642 5641 5640 5638 5637 5636 5634 5632 5629 5627 5626 5624 5622 5620 5619 5617 5616 5615 5614 5613 5611 5609 5606 5605 5603 5602 5600 5597 5595 5592 5588 5585 5584 5582 5580 5579 5576 5574 5571 5568 5565